Theta_e
309 310 313 317 319 321 322 322 322 322 323 323 323 323 324 326 325 325 327 327 327 327 326 327 328 328 329 329 328 328 329 330 329 329 329 328 327 327 327 326 325 323 323 323 324 322 323 321 319 320 320 317 317 318 318 317 317 315 314 313 312 314 314 312 312 312 310 311 311 309 310 310 309 308 309 309 309 309 309 308 309 308 308 308 309
302 303 307 309 315 315 318 319 317 319 321 322 323 323 324 325 325 326 326 326 327 328 327 327 328 329 328 328 326 326 327 328 328 328 330 329 327 327 326 325 324 322 321 323 323 324 323 321 322 323 322 320 318 317 316 314 314 314 315 317 316 316 315 314 314 312 309 307 309 311 311 312 312 311 310 310 309 308 308 307 308 307 307 308 308
299 301 305 310 312 313 316 318 319 322 322 322 324 323 322 323 325 325 326 326 327 327 327 327 326 324 326 320 325 319 321 326 326 325 327 327 327 326 324 324 323 324 325 325 325 325 324 322 323 324 322 320 319 318 316 314 316 317 317 317 317 313 313 315 315 313 312 308 309 308 307 308 310 306 304 304 307 307 307 307 307 306 307 307 307
299 300 303 308 310 313 313 315 318 319 319 318 320 322 322 322 323 323 324 326 326 326 325 327 325 321 321 320 321 323 320 316 319 320 321 323 323 323 322 323 323 325 326 326 326 327 326 325 323 321 322 321 321 321 320 318 316 318 317 316 315 315 312 312 310 310 311 310 308 306 307 307 305 301 301 309 305 308 307 307 306 307 306 306 305
298 298 300 305 308 311 314 315 315 317 317 319 320 322 324 322 323 323 324 325 325 323 323 323 321 318 318 316 316 317 316 316 318 317 318 323 324 323 326 325 325 326 327 327 325 327 327 327 326 325 323 322 320 320 321 321 320 319 318 316 316 316 315 311 310 311 311 313 312 308 306 303 304 308 310 311 312 307 305 305 305 304 304 305 304
299 300 302 305 310 311 308 307 311 315 316 318 320 321 321 321 320 321 322 323 324 322 322 323 322 322 319 319 317 313 315 313 314 316 314 319 323 322 324 325 326 326 326 327 327 325 326 326 325 324 324 323 321 321 320 319 318 317 318 317 316 316 315 314 313 311 311 311 312 313 311 308 308 309 307 304 308 312 313 312 310 310 307 305 303
296 297 297 299 301 303 303 303 306 311 313 306 305 314 317 319 320 321 322 322 322 321 321 321 320 321 321 320 318 317 317 311 310 312 316 312 314 316 318 320 321 322 321 322 322 323 325 325 324 324 321 320 318 320 320 320 320 319 317 317 317 315 314 312 312 313 310 310 311 311 309 309 310 306 304 306 303 307 310 310 309 308 309 308 306
298 298 297 297 299 302 305 302 300 303 301 298 301 306 313 317 318 319 320 320 321 321 320 321 321 319 318 316 315 315 315 315 311 313 313 315 316 316 317 318 319 319 319 319 321 321 321 321 321 321 321 321 318 318 318 319 319 320 318 318 317 315 314 314 313 313 312 311 308 308 308 308 308 307 307 305 302 299 304 308 308 309 309 309 310
297 298 298 298 298 297 297 298 297 297 297 299 301 304 308 312 315 316 319 319 319 320 320 319 320 319 318 316 312 311 314 312 311 312 314 314 314 312 316 316 317 318 319 318 319 319 317 318 319 318 318 318 315 317 318 318 317 316 315 315 315 315 315 315 314 313 313 312 311 309 308 308 307 307 307 305 302 302 303 305 307 308 309 309 309
295 297 297 296 296 296 295 297 298 296 296 296 298 301 303 308 312 314 316 317 318 318 319 318 318 317 316 315 315 311 312 312 312 311 311 313 314 311 311 313 314 315 313 312 312 312 312 312 312 313 314 314 313 315 315 315 314 314 313 313 313 313 314 314 312 313 313 313 312 312 310 308 307 306 303 304 305 304 301 303 306 305 304 306 307
295 295 295 296 295 296 297 299 298 300 299 297 300 302 302 308 310 313 309 311 314 317 317 317 316 317 316 315 316 314 312 313 312 311 309 308 311 310 309 309 309 308 308 308 307 307 306 305 305 305 306 307 308 308 307 307 308 309 308 308 308 309 311 312 311 311 311 311 311 311 310 309 307 305 307 307 305 302 302 303 304 305 304 303 305
294 295 295 295 297 297 297 298 299 300 300 298 298 301 302 304 308 309 305 307 309 312 314 314 315 315 316 315 315 315 315 315 313 310 309 311 310 308 306 307 305 305 304 303 303 302 303 303 302 303 303 304 304 304 306 307 310 309 308 307 307 308 309 307 307 307 308 308 308 309 309 310 309 307 307 307 305 304 303 301 301 303 303 303 304
295 294 294 294 296 297 296 297 298 298 300 298 300 300 301 304 308 309 306 305 309 311 312 312 313 313 314 315 314 313 313 313 312 310 309 309 307 305 303 300 299 301 300 301 300 300 301 302 302 302 302 301 300 302 302 303 304 304 306 306 306 306 306 302 301 300 303 304 305 305 305 306 305 307 307 306 306 305 302 299 300 301 297 298 299
295 294 293 294 295 296 297 298 299 299 300 301 300 302 302 304 306 310 308 307 307 311 311 311 312 312 312 313 312 311 310 309 309 310 308 306 304 301 299 299 299 298 298 298 297 297 299 297 297 299 297 297 298 299 299 299 300 301 301 301 301 302 302 301 299 297 298 298 298 300 301 303 303 304 304 303 302 299 297 296 296 296 297 295 297
292 293 295 295 295 296 297 298 297 298 302 303 303 304 306 307 308 310 309 307 308 310 311 311 311 312 311 310 310 309 308 307 305 306 305 303 301 300 298 298 299 297 298 295 295 296 295 297 296 297 297 297 298 298 298 297 297 298 298 297 298 298 296 297 296 296 298 296 295 297 298 299 299 299 299 299 301 301 299 298 296 293 293 294 293
293 294 294 294 294 294 296 297 296 297 301 303 304 306 308 309 310 310 310 308 308 308 309 309 308 307 306 306 305 304 303 304 303 302 300 299 300 299 297 296 296 295 295 295 294 294 294 294 295 295 294 295 295 296 296 295 294 295 295 295 295 295 295 294 293 294 294 294 293 294 293 294 295 295 295 296 297 298 299 300 299 295 292 289 291
292 294 293 293 293 293 294 294 296 298 299 302 303 305 308 309 310 309 308 308 307 306 306 305 305 304 303 305 305 306 305 303 300 298 297 296 297 296 296 294 294 294 294 291 293 292 292 292 292 292 293 293 293 293 293 293 293 292 292 291 292 291 291 290 291 292 291 290 291 292 292 293 292 293 292 292 294 293 295 298 299 296 295 291 288
292 292 292 293 293 293 292 292 293 296 298 298 300 303 307 308 308 308 307 306 305 305 305 306 304 302 302 302 302 302 301 298 297 296 295 295 294 294 294 294 293 292 292 292 291 290 290 289 290 290 289 291 290 291 291 291 290 289 288 288 287 287 287 286 287 286 289 289 288 288 288 289 290 289 291 291 290 293 293 294 296 297 297 292 291
292 292 291 291 292 292 292 292 292 292 294 297 298 301 303 303 304 306 304 303 303 303 302 301 301 301 300 299 298 296 296 295 294 294 294 294 293 293 292 291 291 290 290 290 289 287 286 286 287 286 287 287 288 288 287 287 286 287 285 285 286 285 284 285 285 286 287 286 285 286 286 286 288 288 290 290 288 289 291 292 294 296 297 296 293
293 292 292 292 291 291 292 292 292 292 292 293 296 299 300 300 300 300 299 299 299 299 299 298 297 296 294 294 294 294 294 294 293 293 293 292 291 291 291 290 290 288 287 286 286 286 286 286 285 285 285 284 285 284 284 284 284 284 284 284 284 284 285 284 285 284 286 285 285 286 286 286 287 285 287 287 288 288 289 290 292 294 296 296 295
292 292 292 291 291 291 290 290 291 290 290 291 294 296 297 297 297 298 298 297 296 295 295 294 294 293 293 293 292 292 292 292 292 292 291 290 289 289 289 288 285 286 285 286 286 285 285 285 284 284 284 284 285 284 283 283 283 284 283 284 284 284 285 284 283 285 284 283 284 285 286 287 286 285 287 287 287 288 287 288 289 291 293 293 293
292 292 291 291 290 290 289 289 289 291 290 291 292 293 293 293 294 294 294 294 293 293 293 293 293 293 292 292 291 291 291 291 290 289 288 287 286 286 285 285 286 283 285 285 286 284 283 283 284 284 284 284 284 284 283 283 284 284 284 284 283 284 284 284 283 284 284 283 283 284 285 285 285 285 286 285 286 286 285 285 286 287 289 290 291
292 291 291 291 290 290 289 290 290 291 290 290 290 292 292 292 292 291 293 291 292 292 292 292 292 292 290 290 289 288 288 287 287 287 286 286 285 284 284 286 285 284 283 284 283 283 282 282 284 283 284 284 284 284 282 283 283 284 284 284 283 284 284 284 284 284 284 283 284 283 284 284 284 284 284 284 284 284 284 284 285 285 286 287 288
291 290 290 290 289 288 289 290 291 290 290 291 291 290 291 291 291 291 290 290 290 291 291 291 290 289 288 288 287 287 287 286 286 286 285 284 285 284 283 285 284 283 284 282 282 282 282 283 284 284 284 284 284 283 283 282 283 283 284 284 284 283 283 283 283 284 284 283 283 283 284 284 284 283 284 284 284 283 283 284 284 284 285 286 286
291 290 290 290 289 289 291 291 291 290 289 289 290 290 290 289 288 290 289 289 289 289 289 289 288 288 287 287 286 286 286 286 285 285 285 284 284 284 283 283 283 284 282 283 283 283 284 284 284 283 283 283 283 283 283 283 283 282 282 283 284 284 283 284 283 283 284 283 283 283 284 284 283 283 283 283 283 283 284 283 284 285 284 285 285
291 290 290 291 291 291 290 289 290 289 289 289 289 289 288 288 288 288 289 289 288 288 288 288 287 287 287 286 286 286 286 286 285 285 284 284 284 284 283 282 282 284 283 283 283 283 282 282 282 282 282 281 281 281 282 283 283 283 282 281 282 282 283 283 283 284 283 283 283 283 283 283 283 282 283 283 283 283 283 283 283 284 284 284 284
292 292 292 290 290 291 291 290 290 288 288 289 289 289 288 288 288 288 288 289 288 288 287 287 287 287 287 286 286 286 286 285 285 284 284 284 283 283 283 283 282 283 283 283 282 282 281 282 282 282 282 282 282 282 281 281 282 282 282 283 282 282 283 282 283 283 283 283 283 283 283 283 283 283 283 283 283 283 283 283 283 284 284 284 284
292 292 292 292 292 291 291 291 289 289 288 288 288 289 289 289 289 288 288 288 288 287 287 287 287 286 286 286 285 285 285 284 284 283 283 283 283 282 282 282 282 283 283 281 281 282 281 280 280 280 281 280 280 280 280 280 280 281 281 281 281 282 282 282 282 282 282 282 283 283 283 283 283 283 283 283 283 283 283 283 284 283 284 284 284
292 292 293 293 292 292 292 290 289 288 288 288 288 288 287 287 288 288 288 287 287 287 287 287 286 286 286 285 285 284 284 283 283 283 283 283 282 281 281 281 281 281 282 280 281 281 281 281 281 281 281 280 281 282 281 281 282 283 281 282 282 282 282 282 282 282 282 282 282 282 282 282 282 284 285 285 286 286 284 283 284 284 283 283 283
293 293 293 293 293 292 292 291 290 289 289 289 289 288 288 288 288 287 288 287 287 287 287 286 286 286 285 285 284 284 283 283 283 283 282 282 281 281 281 281 280 280 280 279 279 279 280 280 280 280 279 281 281 281 283 288 289 285 283 283 283 282 282 281 281 281 281 281 281 281 281 283 284 284 284 285 287 287 287 286 285 284 284 283 284
294 294 293 293 293 292 292 291 291 290 290 290 290 289 288 288 288 288 288 287 286 286 286 286 286 285 285 284 284 283 283 283 282 282 281 281 281 281 280 280 279 279 279 278 279 280 280 279 279 279 280 281 281 282 286 288 289 289 286 282 282 282 281 281 280 280 280 280 281 281 280 281 282 283 282 285 286 287 287 287 287 287 287 285 284
295 294 294 293 293 293 292 292 291 291 290 290 290 289 289 289 288 288 287 286 286 286 286 285 285 285 284 284 283 283 282 282 282 281 280 280 279 279 279 278 278 278 278 278 279 279 279 279 279 279 279 280 280 284 287 287 288 288 288 285 282 282 281 280 280 280 280 280 280 280 280 281 280 281 282 282 283 284 285 286 286 287 287 287 287
295 294 294 294 294 294 293 293 292 291 291 290 290 289 289 289 288 287 286 285 285 285 285 285 284 284 284 283 283 282 282 281 281 280 280 279 278 277 276 276 276 277 278 279 278 278 278 278 279 279 279 279 279 283 285 287 287 287 288 287 282 281 280 279 279 279 279 279 279 280 280 281 281 282 281 281 281 282 284 285 285 286 286 286 287
296 295 295 295 295 294 294 293 293 292 291 290 290 290 289 288 287 286 286 285 285 285 285 285 284 284 283 282 282 282 281 280 280 279 279 278 277 276 275 275 276 277 277 277 277 277 277 278 278 278 278 278 278 282 285 286 286 287 287 286 280 280 279 279 279 279 279 279 279 279 279 279 280 279 280 280 281 282 283 283 284 284 284 285 286
295 294 294 295 295 294 293 292 292 291 290 289 288 288 287 287 287 286 285 285 284 284 284 284 284 283 283 282 282 281 280 279 279 278 277 277 276 275 275 275 276 276 277 276 276 275 276 275 276 276 277 277 278 283 284 285 286 286 287 285 280 280 279 278 279 278 278 278 279 279 279 279 280 280 281 282 282 283 284 283 283 283 283 283 284
295 295 295 295 294 294 294 293 292 290 289 289 289 288 288 287 286 286 285 284 284 284 283 283 283 282 282 282 281 280 279 278 278 277 276 276 275 274 274 275 275 275 274 274 274 274 274 274 275 274 276 276 277 282 283 284 285 285 285 281 279 279 278 278 278 278 278 278 278 279 279 279 280 280 282 284 284 283 282 281 281 282 282 283 283
296 296 296 296 296 295 294 291 290 290 289 289 288 288 287 286 285 285 284 284 284 283 283 283 283 282 281 281 280 279 278 277 277 276 275 274 274 274 274 274 273 274 273 273 273 274 274 274 274 274 274 275 275 279 282 283 284 285 283 278 278 277 277 277 277 278 278 278 278 279 279 279 279 279 282 284 285 284 282 281 281 281 282 282 283
291 291 291 292 291 290 289 291 290 289 289 288 287 287 287 286 286 285 284 283 283 283 283 282 282 281 280 279 279 278 277 276 275 274 274 274 272 272 272 273 273 272 272 272 273 273 273 273 273 274 274 274 274 277 281 282 283 283 283 278 277 277 276 276 277 278 278 278 279 280 280 279 279 279 282 284 285 284 282 282 281 281 281 281 282
290 292 291 290 291 291 289 289 289 288 288 287 287 287 286 286 285 284 284 283 283 282 282 282 281 280 279 278 277 276 275 274 274 273 273 272 271 271 271 270 271 270 271 272 272 272 272 272 272 273 276 275 272 275 280 281 282 282 281 277 276 275 275 276 276 277 278 278 278 279 280 280 280 281 284 284 285 284 282 282 282 281 280 280 281
287 288 291 290 289 288 288 288 289 289 288 287 287 287 286 286 285 284 283 283 282 282 281 280 279 278 277 276 275 274 274 273 273 272 271 271 271 270 270 271 269 270 270 271 270 271 272 274 274 273 272 271 271 272 275 281 281 282 282 279 275 274 275 275 277 277 277 277 278 278 279 281 282 283 284 284 284 285 282 282 282 281 280 279 282
286 288 288 289 289 290 290 290 290 289 287 287 287 287 286 285 284 283 283 283 282 280 279 279 278 277 275 274 274 273 273 272 271 272 272 271 270 271 270 269 269 270 270 270 270 272 272 272 272 271 270 270 271 271 274 279 280 281 282 280 274 275 276 277 277 277 277 277 277 277 278 280 282 283 283 284 284 284 284 282 281 280 280 282 284
283 285 287 288 288 287 286 286 287 287 287 287 287 286 286 284 284 283 282 280 279 279 278 277 276 275 274 273 273 272 272 271 271 271 270 270 269 269 270 270 270 270 271 271 271 271 270 270 269 269 270 270 271 276 273 276 279 280 281 281 278 277 279 278 277 276 277 277 277 277 277 279 282 282 283 283 283 283 283 281 280 283 284 285 283
284 284 284 287 287 286 286 286 285 286 286 286 286 285 284 283 283 281 278 278 278 277 277 276 275 274 273 272 272 272 271 270 270 270 270 270 270 271 271 271 271 271 271 270 269 268 268 268 268 268 269 269 270 271 276 275 278 279 280 280 280 279 280 278 277 276 276 276 277 277 278 280 281 282 282 282 283 283 282 281 283 284 284 284 283
283 284 284 285 286 285 284 282 284 284 285 285 286 284 283 282 281 277 277 277 277 276 276 274 274 273 272 272 271 270 269 269 269 269 269 270 271 271 270 270 270 269 268 268 267 267 267 267 267 268 268 270 269 269 274 276 276 278 279 279 279 280 280 278 277 276 276 276 276 277 278 281 281 281 281 282 282 281 281 282 283 283 283 283 282
282 283 282 283 285 283 282 281 281 282 282 283 284 284 281 281 278 277 277 276 276 275 274 273 272 271 271 270 269 269 268 267 268 270 271 271 270 270 269 269 268 267 266 266 266 266 266 266 266 267 268 269 269 269 269 273 276 276 278 278 279 279 279 279 276 276 276 276 278 280 281 280 280 280 280 280 280 280 281 282 282 282 281 280 280
280 280 280 280 280 280 280 280 278 279 280 280 281 282 281 279 276 276 276 276 275 274 273 271 271 270 270 270 270 269 269 270 270 270 270 270 270 270 269 268 265 264 264 264 266 266 265 265 266 266 267 268 269 268 267 269 273 275 276 277 278 278 277 278 277 276 278 279 280 280 279 279 278 278 277 277 277 278 280 281 280 280 280 279 279
280 279 278 279 279 279 279 278 278 275 277 277 278 277 278 276 276 275 275 274 273 273 272 271 270 270 270 270 271 270 270 269 269 269 269 269 269 268 268 266 263 262 263 264 265 266 266 266 266 266 266 267 267 267 268 270 273 275 275 276 276 276 277 277 276 276 277 277 277 276 276 277 277 278 278 278 279 279 278 277 278 279 279 278 278
278 277 277 278 279 279 278 277 277 275 274 275 275 274 275 275 274 274 273 273 272 272 271 270 270 270 270 270 270 270 269 268 268 268 268 267 266 265 263 263 263 262 262 264 263 264 265 265 265 265 265 265 266 267 269 271 274 275 275 275 275 275 275 275 275 276 276 276 274 275 274 273 274 274 275 276 276 275 276 276 277 277 277 278 279
277 276 277 279 278 278 277 277 276 273 273 273 273 273 274 274 274 272 272 272 272 271 271 270 270 270 269 269 269 269 268 267 266 265 265 265 263 261 262 262 263 263 262 263 263 265 266 263 262 264 265 266 266 267 269 276 275 277 275 274 274 274 275 275 276 278 275 273 272 271 271 272 272 273 274 274 273 273 274 275 275 275 276 277 278
275 275 275 275 275 277 276 276 274 271 272 272 272 272 272 273 272 272 272 271 271 270 270 269 269 269 269 268 267 267 266 265 265 264 264 263 270 272 268 263 265 272 274 276 274 266 265 264 263 264 265 267 267 270 275 276 276 277 277 277 277 277 277 276 277 277 274 270 269 269 270 271 272 273 272 272 272 272 272 272 273 275 276 276 276
275 275 274 274 274 273 273 273 272 271 271 271 271 271 270 270 271 271 272 271 271 270 269 269 268 267 267 267 266 265 265 264 263 263 263 264 264 267 274 274 273 273 274 276 276 275 274 274 270 265 267 274 274 275 275 276 276 276 276 276 276 277 276 276 276 273 270 269 269 269 270 271 271 270 270 270 269 269 270 270 272 273 274 275 274
Wind_Speed
7 7 7 9 10 10 9 8 8 7 7 9 9 10 10 11 9 11 9 8 8 8 7 8 8 6 6 8 8 6 6 5 5 5 5 4 3 3 4 5 5 5 6 3 4 4 4 3 4 4 3 2 3 5 6 5 5 4 3 1 3 5 5 3 4 3 4 7 6 7 8 6 8 8 9 8 8 8 6 6 7 6 7 7 8
1 4 5 5 6 7 7 7 7 9 8 9 11 12 11 10 11 11 8 8 10 10 9 8 7 8 8 8 5 4 5 5 5 4 5 5 4 3 3 3 4 4 4 3 3 3 4 4 4 4 4 5 5 4 3 4 4 4 3 4 4 5 5 2 3 2 2 4 7 7 7 7 8 8 8 8 7 6 6 6 7 6 8 8 7
6 6 6 7 7 7 8 8 9 12 11 11 11 9 9 10 10 9 9 9 9 9 9 9 6 5 5 3 5 2 1 4 5 4 4 5 5 5 4 5 4 4 4 4 4 4 4 4 5 6 5 4 4 4 5 5 5 5 5 4 5 3 4 4 5 5 5 4 4 5 5 7 4 3 3 5 6 7 6 6 6 6 8 7 6
9 9 9 8 8 8 7 8 10 8 8 7 7 9 8 9 9 9 10 9 9 9 9 7 6 5 4 4 4 5 4 3 3 2 2 1 3 3 3 4 4 4 4 5 5 5 5 5 6 4 5 4 7 7 5 6 4 4 5 6 4 4 3 4 2 5 5 3 5 1 5 4 10 2 5 6 4 6 4 6 5 7 7 7 6
10 7 6 6 8 9 11 10 7 9 9 10 10 10 9 11 11 11 9 10 8 8 8 6 5 4 3 2 2 1 2 2 2 2 2 3 2 2 5 4 4 6 5 5 6 7 7 8 4 3 3 4 2 3 5 5 4 5 5 4 5 5 5 2 2 2 4 3 3 3 4 1 3 9 9 9 3 3 4 4 7 6 7 7 6
10 11 12 11 11 9 6 6 7 8 9 9 9 9 7 7 7 7 6 7 8 8 9 8 8 8 6 5 5 3 4 3 4 5 4 4 5 2 1 1 2 2 2 4 4 3 3 3 2 2 1 2 2 2 3 2 3 3 4 3 4 4 3 5 4 2 3 3 4 4 3 7 10 6 6 6 1 6 10 8 7 7 6 7 6
5 3 2 5 6 6 6 7 7 8 8 4 4 6 6 7 7 8 8 7 7 7 8 8 7 7 9 8 6 6 6 3 3 2 3 2 3 4 3 3 2 2 1 2 2 2 2 3 4 4 2 1 2 3 3 2 3 2 2 1 3 2 2 3 4 4 2 3 5 4 4 5 6 6 5 8 14 1 5 6 6 7 9 8 6
8 7 6 6 6 9 12 9 7 8 4 2 4 5 7 7 8 8 7 7 7 7 8 9 9 7 7 6 6 6 6 5 3 3 4 5 6 5 5 4 4 4 5 4 4 4 4 4 4 4 4 4 3 4 3 2 2 5 6 4 4 3 2 3 4 3 3 3 0 3 3 4 4 4 6 7 10 14 9 5 6 8 7 7 8
6 7 7 7 8 7 5 6 4 3 3 4 5 5 5 5 6 6 8 8 7 8 9 8 8 9 8 6 5 4 5 4 4 4 6 5 7 3 5 4 4 3 3 4 4 3 4 3 3 4 2 2 2 2 3 5 5 3 5 6 6 6 5 3 3 5 4 3 5 3 3 3 4 6 6 2 5 10 16 10 11 4 5 6 7
4 4 4 4 4 4 3 1 1 3 2 2 1 1 4 5 6 7 8 7 7 7 8 8 7 8 7 6 7 5 5 4 5 5 5 4 6 5 4 4 4 5 5 5 5 5 5 5 5 5 4 3 4 4 3 3 3 4 3 3 3 3 3 5 3 2 3 4 4 5 6 5 4 3 1 5 5 7 11 14 12 14 17 7 6
4 3 2 1 0 1 2 4 2 1 1 1 2 1 3 5 6 7 6 5 6 8 8 8 6 7 7 8 9 9 7 8 7 5 5 5 6 4 5 4 4 5 5 6 6 5 6 5 5 4 5 5 6 5 4 3 3 4 3 4 4 4 4 4 5 5 4 4 5 4 5 6 6 7 9 7 7 8 11 14 13 13 13 18 8
4 4 3 2 2 1 1 3 3 2 1 2 2 1 4 4 6 6 3 4 5 6 7 7 7 6 7 9 9 9 9 7 8 7 5 6 5 5 4 5 5 5 5 5 6 5 5 5 4 4 5 4 4 3 4 3 4 3 3 3 3 4 3 4 3 3 5 4 4 4 5 5 5 6 7 8 8 9 11 13 12 13 12 6 9
5 4 4 4 5 5 4 4 2 3 4 4 4 3 4 4 6 8 5 4 6 6 8 7 7 6 7 7 7 7 7 7 7 7 4 6 5 5 5 5 3 5 4 5 4 5 5 6 6 6 5 5 3 4 4 4 5 4 5 4 4 4 3 3 4 3 3 3 3 4 3 4 5 5 5 6 6 8 9 12 11 8 13 16 9
5 5 4 5 5 4 4 5 4 4 4 5 4 4 4 5 5 8 5 4 5 7 8 8 6 6 6 7 7 7 7 7 6 8 6 6 5 5 5 5 5 5 4 5 3 4 5 4 4 5 4 4 4 4 4 4 4 5 4 5 5 4 4 4 4 4 4 4 4 4 4 5 4 5 5 5 6 7 7 8 12 11 9 12 12
4 4 5 5 5 4 5 4 4 4 4 4 4 4 4 5 6 8 7 4 6 7 7 9 7 7 6 6 7 6 7 7 6 6 7 7 6 7 5 5 6 4 5 3 3 4 4 5 5 5 4 4 4 4 4 4 4 5 5 4 5 4 4 4 4 4 5 4 4 3 3 3 3 3 3 3 3 4 6 7 9 13 13 9 9
4 4 4 4 4 4 3 4 4 4 4 4 4 5 5 6 6 7 8 6 6 7 7 8 7 7 6 7 7 7 7 8 7 7 6 6 7 7 6 5 5 5 4 4 4 4 4 5 5 5 4 4 4 4 4 4 4 5 5 5 5 3 5 5 4 4 4 4 4 4 3 4 4 4 3 4 4 3 4 4 6 7 10 16 16
4 4 4 4 3 3 4 4 3 3 4 5 5 5 6 6 7 8 7 6 6 7 7 7 7 7 6 7 7 8 8 8 8 7 7 6 7 6 6 5 4 5 4 3 5 4 5 4 5 4 4 4 4 5 4 4 4 4 4 4 5 4 4 4 3 4 3 3 4 3 3 4 4 4 4 3 4 4 4 4 4 6 6 10 10
4 4 4 5 5 4 3 2 3 4 5 4 5 4 5 5 7 8 7 8 6 7 7 7 8 7 7 8 7 8 8 8 8 8 6 8 6 6 5 6 5 4 5 4 5 5 4 4 4 4 4 4 4 4 5 4 4 5 4 4 3 3 4 3 4 3 4 4 3 3 3 4 4 4 5 4 4 4 4 4 4 4 4 8 6
5 5 4 4 4 4 4 4 2 2 3 4 4 5 5 4 4 6 7 6 6 6 7 6 7 6 6 7 8 7 7 7 6 6 6 8 7 6 6 5 4 4 6 5 5 5 4 4 5 5 5 5 5 5 4 5 4 5 4 4 4 4 4 4 3 3 4 3 4 5 4 4 4 5 6 5 5 4 4 5 5 5 5 7 10
6 6 5 5 5 4 5 5 4 4 4 4 4 5 6 6 6 7 6 6 7 8 7 8 6 7 7 7 6 7 7 7 6 7 7 7 6 6 6 5 5 4 4 4 5 5 5 5 5 5 5 4 4 4 4 4 4 4 4 4 4 4 4 4 5 3 2 4 5 6 6 5 6 5 6 5 5 5 4 4 5 6 6 6 8
6 6 6 5 5 4 3 3 3 3 3 4 4 6 6 5 7 7 9 7 7 6 7 6 7 8 8 8 8 8 8 7 7 7 8 6 5 5 5 5 4 4 4 5 6 5 5 5 4 4 4 4 4 4 4 4 4 4 4 4 4 4 4 4 4 6 4 4 4 5 6 6 5 5 6 6 5 6 5 5 5 6 7 6 7
6 6 5 5 4 4 3 2 3 4 4 5 4 5 5 5 6 6 7 6 8 7 7 7 6 7 8 8 8 6 7 7 8 6 7 6 5 5 5 4 6 4 4 5 5 4 4 4 4 4 4 4 4 4 4 4 5 5 5 3 3 4 4 4 4 5 5 4 4 5 7 6 5 6 7 7 6 6 5 5 6 6 8 7 6
7 7 6 5 5 5 5 5 5 5 5 5 5 5 6 5 6 5 8 6 5 6 6 6 7 8 8 7 8 7 7 7 8 6 7 6 5 4 4 6 6 5 4 5 4 4 4 4 4 4 4 4 4 4 4 4 4 3 4 4 3 3 4 4 5 5 5 4 5 5 7 6 5 6 7 7 5 6 5 6 7 6 8 9 7
4 4 4 5 4 4 5 5 5 5 5 5 5 5 5 5 5 6 7 7 6 6 6 7 8 8 8 8 8 7 8 7 8 6 7 5 5 5 4 6 5 4 5 3 3 3 4 4 5 5 5 4 4 4 4 4 3 4 4 4 4 4 4 4 4 5 6 5 6 7 8 7 6 7 8 7 6 5 6 6 7 7 7 10 9
6 6 6 5 5 7 7 6 6 6 5 5 6 5 6 5 5 6 6 6 6 6 7 7 8 10 8 9 8 7 8 8 8 6 7 6 5 5 4 5 5 5 4 4 4 4 5 5 5 4 4 4 4 4 4 4 4 3 3 4 4 4 4 5 5 5 6 5 6 6 8 7 6 7 9 7 8 8 7 7 8 9 8 9 8
8 7 7 9 9 6 5 5 6 6 6 6 5 5 5 5 5 5 8 7 6 7 7 9 8 10 9 9 8 7 8 8 8 7 7 6 6 5 5 4 4 5 4 5 5 5 4 4 4 3 3 3 4 4 4 4 4 4 3 3 4 4 5 5 6 6 5 5 6 7 7 7 7 7 10 9 8 9 8 8 9 9 10 8 10
11 10 8 5 6 9 8 6 6 6 6 6 7 7 6 7 7 6 5 7 8 8 8 8 8 8 9 8 8 8 8 8 7 7 6 6 6 5 5 5 4 5 5 5 4 4 3 3 3 3 4 4 4 4 4 4 4 4 4 4 4 4 4 4 5 6 6 6 6 7 7 7 8 8 9 10 10 10 9 10 9 9 11 9 10
6 8 11 13 11 8 9 9 8 8 7 6 6 7 8 9 9 7 7 7 7 8 8 8 9 8 8 8 7 7 7 7 6 6 6 5 5 5 4 4 5 6 5 4 4 3 3 2 3 3 3 3 3 3 3 3 4 4 4 4 4 4 5 6 5 6 6 6 7 7 7 7 8 8 8 9 8 10 10 12 9 7 9 11 12
10 12 11 11 13 12 11 10 9 8 9 9 8 7 5 5 5 7 8 8 8 9 9 9 8 9 8 7 7 6 6 6 6 6 6 5 5 4 4 5 5 4 4 3 3 3 3 4 4 4 4 3 3 4 3 3 4 5 4 4 4 5 6 7 7 7 7 7 7 6 6 7 8 12 14 14 13 12 10 12 13 9 9 10 11
15 14 13 12 11 10 10 10 10 12 11 10 9 9 8 9 8 8 8 7 8 9 10 9 9 9 8 7 7 6 6 6 6 6 5 5 5 5 5 5 4 3 3 3 3 3 3 4 4 4 4 3 3 3 5 10 8 5 5 5 5 5 6 6 7 8 7 6 7 6 6 10 13 14 14 15 14 15 16 13 12 11 12 11 12
13 11 11 11 10 10 10 12 13 13 13 12 11 9 8 8 9 9 9 9 7 9 8 9 9 7 7 7 7 7 6 7 5 5 5 5 5 5 5 4 4 4 3 3 3 4 4 4 4 4 4 4 4 4 10 11 11 12 6 5 5 6 5 5 6 6 8 9 8 6 5 7 8 10 10 13 18 15 16 18 19 19 16 13 13
13 13 11 11 13 14 15 16 14 13 13 12 12 11 11 12 10 10 9 8 8 8 10 8 8 8 7 8 7 7 7 6 5 5 5 4 5 5 5 4 3 4 3 3 6 4 4 4 4 4 4 5 5 7 12 12 12 13 10 6 4 5 5 5 5 6 7 7 9 9 7 4 5 7 9 10 12 17 19 18 19 19 19 19 19
13 13 15 16 17 18 18 16 13 14 14 14 13 13 14 12 11 9 8 9 9 9 9 9 8 8 8 7 7 8 7 6 5 5 4 5 5 4 4 3 3 1 3 6 4 5 4 4 4 5 4 5 4 8 12 13 13 13 13 9 5 4 6 6 6 6 7 7 8 9 10 7 3 9 9 9 11 12 17 20 20 19 18 19 18
11 14 16 17 14 12 12 14 15 14 13 11 11 12 10 8 9 9 10 9 10 8 9 9 8 8 8 7 7 7 7 6 5 5 5 5 4 4 3 2 2 3 5 5 4 5 4 4 4 4 4 4 5 8 12 13 13 13 13 10 4 5 5 5 6 7 6 7 7 9 10 11 8 6 5 7 10 13 14 14 13 12 11 13 16
12 12 12 13 15 14 11 10 12 13 11 11 10 8 9 9 10 11 9 10 8 10 9 9 9 8 8 8 8 7 7 6 6 5 5 4 4 3 3 2 3 4 4 4 3 3 3 3 4 4 4 4 5 10 12 12 13 13 14 9 5 5 5 5 5 5 6 6 7 8 8 10 10 9 8 12 12 13 15 15 16 17 17 14 13
13 16 17 15 14 17 19 18 10 10 11 11 12 9 11 11 8 10 10 8 9 9 9 8 9 8 8 7 8 8 7 6 6 5 5 4 4 3 3 2 3 3 3 3 3 2 2 3 3 4 4 4 5 10 11 12 13 13 13 6 5 6 6 7 6 4 5 5 6 7 9 10 11 11 12 22 20 17 15 16 17 16 16 14 13
14 14 15 15 14 13 10 8 10 12 12 12 11 11 11 10 10 9 9 9 9 10 10 9 9 9 8 7 7 8 7 6 6 6 5 4 4 3 3 1 4 3 3 3 2 1 2 2 3 3 4 4 4 8 11 13 13 15 10 5 6 6 7 8 8 6 6 5 5 6 8 11 12 12 18 25 24 24 14 15 15 16 15 16 14
3 3 3 5 7 6 8 12 12 12 12 10 10 11 11 12 11 10 10 10 10 10 9 9 9 8 8 7 7 7 8 7 6 6 5 4 2 1 2 1 3 3 3 2 2 2 2 2 2 4 4 4 4 7 11 13 14 15 11 7 6 7 8 7 9 8 6 6 7 11 11 10 12 13 22 26 26 20 14 14 15 16 18 17 15
6 7 7 7 9 11 10 10 11 13 12 12 12 13 12 12 11 11 10 11 10 9 10 10 9 7 7 7 7 6 6 7 7 5 5 5 4 3 1 2 3 3 1 1 2 2 2 3 2 3 6 4 4 6 10 13 14 15 11 5 6 7 8 9 9 11 11 8 7 8 13 15 16 19 27 25 27 22 15 14 14 16 16 16 15
4 5 8 9 10 11 10 14 16 18 14 15 14 13 13 13 12 11 11 11 11 10 8 7 8 8 7 7 6 7 6 7 7 5 4 4 3 3 3 3 3 3 2 2 1 1 2 3 3 2 3 3 2 4 5 13 13 14 15 8 5 7 10 11 10 10 13 13 11 8 10 17 23 25 26 28 27 28 19 15 12 11 14 16 13
5 6 8 10 11 15 18 19 15 13 13 13 13 14 13 12 12 12 13 10 8 8 8 8 8 8 7 7 6 6 8 5 4 5 4 3 3 3 3 4 3 3 3 2 2 2 2 2 3 2 1 3 2 4 6 13 13 14 16 13 5 7 8 10 10 11 10 12 12 12 11 18 24 25 26 28 28 28 26 17 14 12 13 19 24
2 5 7 8 7 6 5 5 7 13 14 14 14 15 13 12 12 13 10 8 9 9 9 9 9 8 7 7 7 6 5 5 4 5 6 4 3 3 3 4 3 3 3 3 2 1 0 1 2 1 1 2 3 6 5 9 13 14 15 17 9 7 11 11 11 11 9 8 9 10 11 19 28 28 28 28 29 27 29 17 16 25 30 30 22
4 4 3 8 8 8 8 8 8 10 11 12 14 14 12 11 13 9 8 9 9 9 9 9 8 8 7 7 6 6 6 4 4 4 5 5 3 4 4 4 3 3 4 3 1 0 1 1 0 1 1 2 2 2 9 6 10 14 15 15 16 12 17 10 9 11 11 11 10 12 13 24 29 29 28 29 27 29 22 16 28 29 29 31 24
2 3 5 5 6 5 7 5 6 8 9 10 14 14 12 13 12 8 9 9 9 9 9 9 8 7 7 7 6 6 5 4 4 4 4 5 5 4 4 3 3 4 4 2 1 0 0 2 3 4 2 2 2 2 5 9 9 15 15 16 16 17 18 11 10 9 12 13 14 13 17 29 29 29 28 27 26 24 18 26 27 29 29 25 14
4 4 4 5 8 9 8 6 5 7 7 9 9 13 13 14 9 10 11 11 10 10 10 9 8 8 7 6 6 5 4 4 3 4 6 5 5 4 5 3 4 3 2 1 1 1 2 2 3 4 4 4 3 3 3 7 13 13 15 15 16 18 17 19 12 9 11 12 18 26 27 26 26 27 28 26 21 21 25 25 27 27 24 12 12
3 4 4 5 6 7 8 8 5 5 6 6 6 9 16 11 10 9 9 10 11 11 10 9 8 8 7 7 7 6 5 4 4 3 4 3 5 5 5 5 4 3 1 1 1 1 1 1 2 2 3 4 4 3 3 3 5 9 10 14 16 17 17 18 17 14 19 24 23 23 25 24 22 20 16 13 13 14 23 26 27 24 12 11 11
5 4 6 7 8 8 9 9 9 5 5 5 5 4 6 9 10 8 9 10 10 10 10 9 9 8 7 7 7 6 6 5 5 4 4 4 4 5 5 5 5 3 2 1 1 1 1 2 2 3 3 4 4 3 4 4 5 6 6 7 9 9 13 14 10 10 12 11 16 16 15 20 18 24 22 20 17 16 15 14 12 9 10 11 11
3 4 5 6 7 9 9 9 9 6 4 5 5 6 8 9 8 9 9 10 10 10 11 10 10 8 7 7 6 6 7 6 5 4 5 4 3 4 5 6 6 5 3 1 1 1 2 2 3 3 4 4 5 4 5 7 8 8 8 7 7 8 8 8 9 10 11 12 12 14 15 11 10 11 10 7 7 10 10 10 9 10 10 11 12
6 4 6 9 8 8 9 9 8 5 5 6 6 7 9 10 10 9 10 11 10 9 8 9 8 7 7 6 5 6 6 6 6 4 3 3 5 5 5 2 3 4 3 4 3 1 2 1 2 2 4 5 4 5 5 10 11 14 12 11 9 9 9 8 12 19 14 10 9 8 9 10 9 10 11 13 13 11 13 11 11 8 9 11 11
3 4 4 4 5 7 9 8 6 5 5 7 7 7 7 7 8 8 9 11 11 10 9 9 8 7 7 7 7 6 6 6 6 6 5 2 2 6 4 4 1 4 7 3 5 2 3 3 2 3 1 2 4 5 12 16 15 16 16 18 17 19 19 16 19 22 13 9 9 10 10 11 11 11 13 13 13 13 15 14 12 13 12 12 10
5 5 5 4 4 4 5 5 6 5 5 6 6 6 7 7 8 8 9 10 11 11 9 8 8 8 8 8 8 8 6 5 5 6 6 7 6 3 7 6 4 4 4 5 8 9 8 6 3 0 3 7 9 11 13 14 15 15 16 16 17 17 18 19 21 15 10 9 10 11 11 11 12 12 12 12 13 13 13 13 14 14 12 12 14
Wind_Direction
215 211 202 201 201 200 197 190 195 194 187 179 183 189 189 188 183 195 194 180 174 172 177 175 179 185 192 195 203 195 195 191 197 200 195 201 220 216 212 212 208 211 217 211 216 218 227 235 241 272 269 239 224 235 239 240 236 240 281 241 250 275 282 247 253 223 281 291 272 267 283 264 257 264 261 261 258 259 260 267 271 281 274 273 268
273 245 239 225 208 200 192 190 182 186 205 185 188 193 190 186 189 192 184 188 190 187 185 189 190 196 193 197 175 169 180 191 205 208 198 197 203 208 213 207 201 200 210 209 217 210 229 245 248 251 259 245 232 244 260 256 266 255 235 274 209 243 268 239 238 106 278 250 302 310 289 270 255 252 254 256 264 272 269 265 271 271 275 271 276
229 236 222 209 207 199 189 193 195 196 193 194 196 183 184 187 196 186 188 189 195 191 184 195 194 190 179 176 166 170 223 189 190 191 188 198 206 207 208 205 202 210 209 211 214 219 223 226 227 225 240 237 254 258 248 255 243 249 234 234 279 230 239 257 242 176 254 254 261 296 294 327 320 281 293 286 268 264 264 267 267 269 269 268 273
222 219 214 207 201 199 194 195 199 195 188 194 190 188 188 193 193 188 191 191 190 193 193 191 181 179 183 161 174 163 187 190 190 197 207 220 243 222 212 208 207 213 213 211 212 219 218 226 235 212 219 212 223 236 249 254 247 248 236 233 222 283 238 271 218 203 217 284 315 219 300 339 316 291 314 292 215 255 270 268 267 265 267 274 277
215 224 226 201 198 202 198 199 185 189 194 195 192 192 192 194 193 189 187 191 191 184 185 169 152 154 133 77 80 82 42 86 151 226 207 211 242 200 218 201 206 215 212 206 210 218 215 225 235 240 211 242 245 244 246 254 250 247 251 242 211 233 272 270 311 201 236 223 243 321 315 299 247 301 326 300 309 11 285 268 268 260 259 260 259
201 200 200 197 196 200 203 191 187 199 199 203 196 196 191 192 187 188 187 187 190 184 177 166 174 169 165 172 178 180 199 157 188 207 214 206 212 201 191 218 228 241 225 217 244 278 292 298 267 242 257 313 250 251 285 309 275 290 288 259 265 255 267 306 302 275 225 232 226 223 217 270 302 318 344 310 315 283 283 276 286 283 269 263 245
241 259 239 191 205 190 202 197 200 198 211 192 201 202 197 188 188 187 188 191 187 179 174 168 173 179 182 188 184 183 184 235 225 218 173 126 95 85 93 75 87 121 88 107 67 55 58 52 48 43 40 46 57 64 24 352 348 334 326 319 276 294 261 261 276 297 345 257 228 252 283 282 293 313 302 310 307 249 216 282 275 273 281 279 268
196 204 202 210 199 191 193 200 196 204 196 196 202 201 199 196 188 190 189 187 186 175 177 178 174 177 178 182 176 173 175 193 174 124 109 112 90 86 88 77 76 85 84 77 85 72 61 50 52 50 45 38 42 54 49 13 27 34 25 5 345 336 308 290 302 312 287 305 173 257 282 295 286 281 257 270 292 305 301 251 238 262 268 261 272
183 184 197 200 203 214 215 204 224 232 229 195 197 194 196 193 188 185 189 186 187 176 176 185 176 173 173 164 165 178 161 147 127 123 125 129 108 95 87 85 84 79 84 77 63 67 58 57 45 37 48 54 52 69 59 51 52 43 28 25 22 21 23 340 349 341 335 320 338 341 311 276 283 260 286 288 288 305 299 308 313 285 231 256 273
217 200 194 205 218 221 221 220 179 220 226 221 214 187 187 180 181 181 192 189 181 176 175 177 172 163 162 165 157 145 130 126 124 121 120 124 103 84 77 72 61 64 50 48 48 44 59 51 53 46 37 37 45 48 53 56 57 56 52 49 34 35 17 23 19 340 358 354 343 332 331 308 297 327 344 307 276 250 284 313 320 324 318 298 296
181 178 191 190 248 196 156 162 186 165 255 175 172 167 165 175 171 174 185 177 174 172 166 166 160 163 161 165 159 152 152 140 127 115 119 96 97 88 86 75 54 56 53 48 46 43 53 51 53 52 46 41 39 33 26 43 52 47 40 41 34 35 23 20 19 24 15 5 2 345 335 343 336 329 326 333 327 320 317 310 313 311 307 309 308
171 153 152 135 114 110 118 158 181 194 146 180 177 150 157 160 153 139 123 149 152 152 147 147 148 153 154 157 157 157 154 150 142 140 129 108 103 98 79 71 54 58 49 49 34 32 50 48 47 53 49 45 46 40 37 19 60 41 52 63 47 42 30 32 29 26 17 8 358 1 347 347 344 334 336 333 330 318 312 303 308 316 304 269 303
167 174 162 173 175 182 192 202 199 194 196 190 189 172 162 154 152 136 127 133 135 137 135 136 133 142 145 145 142 146 142 137 133 120 119 116 119 105 89 85 61 56 35 56 27 32 43 47 43 46 43 37 44 47 36 36 45 50 44 47 45 39 36 44 38 18 29 17 351 348 360 351 341 339 337 341 333 328 321 311 305 316 305 307 305
180 181 186 189 192 198 200 194 198 200 198 192 189 171 167 152 144 131 131 134 127 121 125 119 120 126 129 130 132 129 121 119 118 115 113 107 106 103 105 111 95 98 77 58 23 45 48 54 59 51 46 43 45 47 45 40 46 59 52 52 45 28 36 39 39 22 29 23 14 14 6 351 345 356 352 343 340 335 324 322 316 311 300 294 306
186 184 192 196 203 195 196 200 202 196 185 181 179 168 156 144 135 130 124 131 123 122 117 115 117 114 111 113 118 116 117 109 105 110 117 109 104 101 99 99 99 95 88 78 53 63 62 56 51 52 41 42 38 42 38 41 43 58 52 55 49 28 40 42 31 29 26 16 14 14 354 327 320 312 327 311 309 306 311 313 323 323 318 306 294
182 182 198 210 203 198 197 203 206 187 182 173 169 166 154 144 136 133 132 132 125 119 114 117 114 108 106 105 108 110 106 97 88 84 85 105 110 109 104 101 108 109 87 84 58 72 66 65 57 52 49 48 47 47 42 43 41 52 47 47 45 14 42 38 15 24 13 360 350 336 350 308 300 299 293 286 272 274 291 304 319 313 316 314 320
182 181 180 187 195 206 190 181 187 176 177 176 172 172 155 144 136 126 119 118 120 117 117 113 113 106 101 108 110 100 100 107 113 107 107 101 103 107 110 110 100 90 94 86 82 65 67 70 70 57 51 48 50 42 44 45 47 54 50 46 37 7 40 25 13 17 340 338 333 325 299 293 293 296 296 281 281 288 281 285 287 296 303 302 311
186 187 182 179 180 177 179 184 179 176 173 167 165 167 153 145 138 130 129 126 125 121 116 116 111 105 100 94 91 103 109 112 116 118 116 106 100 103 104 95 94 97 96 87 84 79 73 70 77 65 57 55 52 43 43 39 46 46 38 48 36 31 40 10 6 5 332 332 316 314 298 298 289 303 289 288 289 280 281 274 270 266 267 275 277
177 183 178 177 174 175 169 166 166 153 152 149 140 141 131 121 119 124 123 120 122 112 104 95 100 103 108 111 113 109 109 110 109 112 110 109 112 110 105 116 103 91 92 93 89 85 81 70 72 65 55 52 46 44 38 41 47 52 29 31 14 34 35 19 356 358 324 344 327 317 312 303 299 298 294 296 287 283 273 272 269 268 261 257 275
183 182 184 181 182 178 169 158 152 147 137 138 128 122 125 131 124 114 106 108 109 107 109 111 110 113 112 105 99 107 110 113 119 117 112 112 120 118 117 103 110 101 104 107 99 91 82 77 65 69 62 54 55 43 48 51 50 54 42 33 7 31 31 11 334 332 332 338 335 324 312 306 303 302 292 286 285 278 271 269 265 262 259 256 263
185 180 177 177 177 178 170 149 125 104 107 117 125 129 128 124 126 134 133 128 118 121 117 124 123 118 117 115 116 113 110 110 106 106 108 113 113 110 108 124 114 98 117 93 85 84 82 87 83 73 74 62 57 45 35 54 56 36 18 18 14 22 15 341 348 329 338 341 325 309 298 293 293 292 284 287 286 281 281 271 264 264 262 251 253
180 180 172 170 173 165 138 104 106 112 116 117 121 120 123 128 132 128 122 129 132 134 131 130 120 118 115 116 112 108 111 108 107 105 108 109 110 114 129 118 100 94 89 89 87 87 93 93 85 79 72 65 54 48 30 39 36 20 358 1 359 356 352 330 340 323 319 320 311 302 295 291 288 283 287 286 280 286 278 273 264 252 258 257 236
180 174 174 171 167 162 156 149 146 142 140 134 134 134 137 135 132 135 130 136 131 130 123 120 120 118 115 112 113 111 110 111 110 112 111 113 116 113 115 103 94 88 69 85 97 94 97 97 81 65 52 44 36 31 22 32 23 14 352 331 335 334 319 319 324 311 309 313 314 303 295 297 302 300 289 283 284 277 270 263 265 254 257 258 246
165 165 160 163 156 149 145 151 149 149 150 151 145 137 137 140 140 135 134 134 126 125 123 119 116 113 117 117 115 119 116 120 116 122 117 116 109 99 90 90 92 86 82 75 81 89 74 59 52 37 35 27 22 11 2 11 0 352 341 325 321 318 299 293 290 297 304 310 303 306 297 302 306 300 293 294 287 274 274 275 273 266 259 265 257
166 168 167 158 159 168 175 168 163 161 157 151 150 152 149 146 142 139 134 134 127 127 124 123 126 124 124 123 127 130 128 126 122 122 115 110 101 97 83 91 91 78 75 73 52 46 50 46 43 34 16 10 4 1 356 347 343 342 320 307 307 306 300 297 292 288 291 289 289 279 286 295 296 294 295 295 295 296 289 281 276 277 269 266 266
170 167 167 179 181 174 170 174 170 169 162 158 157 155 148 145 150 148 143 139 137 130 132 131 134 130 133 133 137 136 132 128 124 119 115 113 109 101 100 83 97 91 70 59 56 41 49 34 33 19 16 4 358 357 343 323 316 318 316 303 291 290 291 292 294 290 285 281 276 281 284 288 292 289 291 293 294 289 289 282 277 277 273 269 269
178 178 177 163 176 187 181 176 172 168 168 167 162 160 159 154 153 152 147 142 145 139 140 137 139 136 137 141 141 139 133 128 124 122 120 112 107 108 99 98 94 87 75 57 40 41 24 30 9 13 11 2 349 340 327 319 317 318 312 308 304 298 289 284 279 280 281 278 276 278 285 286 285 284 285 289 293 292 287 281 277 278 280 279 274
176 178 181 187 184 177 179 180 175 175 170 171 175 171 167 164 158 155 150 146 148 142 142 143 142 141 140 140 138 136 127 123 121 116 111 109 104 97 97 93 83 74 72 66 51 30 354 30 15 15 354 357 343 330 322 314 307 301 305 301 298 299 299 296 293 291 289 286 284 284 283 283 279 279 279 284 285 290 292 291 284 274 280 286 285
191 198 191 184 185 185 182 179 177 169 175 175 171 170 162 154 152 156 155 159 155 146 147 149 147 142 143 140 133 126 120 116 113 108 102 98 93 90 81 75 74 74 66 64 62 52 31 12 5 9 355 351 339 317 309 318 322 322 314 309 305 304 301 302 302 300 297 294 291 282 280 279 277 276 277 279 281 281 290 295 295 295 288 283 285
200 199 196 194 189 181 181 175 177 181 177 175 174 174 170 164 164 164 160 160 152 157 152 151 146 143 140 136 128 121 119 113 108 107 107 102 95 87 83 77 72 72 66 52 44 46 53 36 5 351 351 346 335 326 328 331 333 324 317 313 310 303 302 300 302 303 300 293 289 290 285 280 284 287 288 287 283 282 284 279 286 297 299 296 292
203 196 195 192 185 184 182 186 187 184 182 177 176 171 165 168 169 167 166 166 160 155 154 149 145 144 137 131 125 123 119 111 114 108 103 98 92 88 81 77 68 65 60 47 55 42 27 17 7 350 344 347 342 335 335 336 329 326 319 306 301 300 297 298 298 297 302 306 303 294 288 293 292 292 293 295 306 291 291 292 289 287 285 288 294
201 198 188 187 191 189 192 192 188 185 179 177 174 173 172 178 173 171 163 156 157 160 153 149 143 140 137 132 129 124 116 117 111 107 103 100 94 86 81 80 72 50 35 55 49 36 24 10 359 354 353 344 338 329 332 327 326 327 326 315 304 303 303 302 297 298 300 303 306 308 306 299 293 295 303 304 301 304 304 298 296 293 288 282 283
200 191 193 195 196 196 194 191 185 184 183 186 174 170 181 176 170 163 149 160 164 160 150 145 146 140 137 133 130 125 122 118 114 109 104 94 94 87 77 69 63 66 63 53 39 36 18 3 360 349 348 341 331 321 322 325 329 330 332 333 319 310 309 303 304 301 302 306 308 311 313 313 305 304 306 301 304 303 304 301 296 288 286 286 281
204 199 196 200 198 198 199 194 190 187 184 173 177 175 168 159 155 152 160 164 159 160 152 147 143 142 140 135 131 128 125 123 117 106 99 95 90 95 100 94 81 55 56 51 41 33 18 3 349 338 336 326 320 308 323 330 333 337 338 343 314 313 305 299 302 303 304 308 307 311 313 314 318 315 299 300 304 305 306 306 305 301 299 294 294
200 201 205 203 199 195 187 184 191 183 171 161 169 168 154 156 164 163 167 160 162 152 151 149 145 143 139 136 133 133 129 125 116 109 103 97 101 96 76 59 69 63 58 49 36 28 1 354 335 328 328 320 308 317 329 335 340 341 343 344 319 315 310 306 303 301 302 304 307 305 306 305 312 319 319 319 315 314 318 319 318 316 312 309 301
203 200 204 198 193 191 191 194 166 155 169 173 171 161 162 168 165 162 156 162 156 153 151 150 147 148 145 143 140 136 130 124 119 112 111 108 98 98 88 62 63 55 58 63 32 48 16 344 322 323 325 322 313 322 332 340 346 347 349 337 328 326 324 319 316 310 306 305 303 308 311 314 315 317 321 327 327 325 318 313 309 305 302 299 294
213 202 207 202 197 192 182 149 161 170 165 176 166 163 161 156 162 165 160 160 160 157 159 156 151 149 146 145 143 138 133 128 126 121 118 119 112 95 80 81 68 59 55 46 49 19 331 332 326 324 322 314 313 316 336 348 353 351 351 340 333 329 324 322 319 319 317 316 318 319 323 321 319 318 322 324 323 325 313 305 300 299 298 299 299
213 186 172 158 167 150 150 162 162 171 172 159 159 161 159 164 167 163 162 165 168 166 161 155 152 151 145 141 138 136 134 133 129 131 132 125 120 101 104 81 91 71 44 34 38 17 339 339 328 312 312 310 311 318 342 353 356 354 354 344 333 331 322 322 321 321 324 325 326 332 327 317 316 314 319 321 322 323 313 307 303 303 304 303 304
184 176 174 168 166 161 155 149 157 166 173 163 161 161 163 170 168 167 168 168 174 164 163 158 150 140 132 129 130 129 132 133 130 134 134 124 125 117 109 93 93 98 93 44 29 36 348 339 318 296 301 302 302 320 338 356 356 355 354 343 337 333 327 329 330 327 326 325 322 324 323 325 320 317 319 320 321 322 313 309 308 305 303 302 302
202 192 171 156 137 129 152 165 177 183 165 163 160 164 170 170 172 168 170 177 175 166 149 129 128 127 123 121 126 127 129 132 133 131 123 128 139 94 75 77 61 86 71 33 42 35 16 329 323 301 290 286 302 324 336 356 357 357 356 358 342 344 337 331 331 329 326 324 327 324 326 325 322 320 319 320 320 320 318 311 307 302 304 302 305
174 164 139 148 164 168 175 183 182 160 158 162 163 163 174 174 169 172 182 175 152 136 134 132 126 123 121 122 121 128 129 124 127 129 127 114 107 108 93 78 65 49 63 43 39 26 19 310 297 282 275 324 331 346 337 355 357 360 359 1 349 344 330 328 327 326 323 322 322 323 319 322 322 321 321 321 321 321 320 317 315 307 303 306 310
88 143 151 151 160 159 146 145 156 161 161 164 165 171 172 169 172 183 173 137 137 137 132 130 129 126 124 123 124 121 117 124 128 122 117 109 104 99 95 92 89 93 81 63 51 36 279 260 274 276 356 353 344 355 346 346 356 1 359 358 355 345 341 332 325 316 315 310 314 314 315 321 323 323 323 322 321 320 320 318 308 309 312 314 314
126 135 152 148 151 160 162 158 151 158 164 168 167 169 170 168 179 170 137 139 135 135 131 128 126 126 128 129 127 127 126 122 121 124 124 116 106 90 79 82 98 87 82 69 58 122 197 219 240 322 349 353 346 344 354 352 351 359 356 355 351 345 339 334 319 316 318 314 313 314 311 318 321 322 321 322 321 321 320 313 316 318 318 319 318
74 123 148 144 137 134 135 135 148 157 166 169 170 168 168 172 172 139 138 132 133 129 128 126 129 131 131 130 128 121 118 113 126 126 122 119 108 103 98 108 93 92 89 72 305 252 42 54 14 345 349 346 339 345 342 358 360 357 353 349 346 342 340 331 325 314 318 318 318 316 317 320 321 321 322 322 322 322 319 319 321 320 323 322 315
129 133 135 137 148 146 136 134 147 158 164 171 176 168 165 171 157 147 147 145 138 135 132 134 137 138 133 131 118 117 118 117 130 139 136 131 120 134 115 82 90 84 111 102 299 42 42 24 12 355 337 330 337 344 340 354 359 352 348 345 343 339 335 333 325 315 310 309 312 315 317 319 320 322 323 323 320 319 319 321 322 323 321 313 315
92 98 105 113 110 118 133 139 146 160 161 169 174 170 171 165 144 150 143 140 138 136 137 140 140 138 139 135 129 122 116 115 118 107 108 122 139 139 124 117 116 128 146 157 55 62 35 35 19 341 335 328 333 339 340 332 335 343 341 340 337 335 331 329 324 312 313 316 317 320 321 321 322 322 322 318 316 316 322 324 322 318 314 320 316
145 145 124 125 134 141 153 157 159 172 157 154 148 141 133 129 148 139 137 137 139 141 139 142 143 141 140 145 144 145 139 126 111 105 98 113 118 123 124 129 139 151 178 173 110 89 37 19 14 353 338 332 333 335 337 330 332 330 328 329 328 322 323 320 312 305 315 317 324 326 324 324 319 318 316 312 308 316 322 318 311 314 321 314 312
126 141 140 134 154 159 163 164 167 166 148 138 134 129 133 136 136 143 142 142 146 153 150 149 148 148 151 155 152 145 141 126 129 134 136 123 110 127 137 152 157 174 148 150 131 90 49 16 11 353 340 336 334 344 341 343 344 341 337 333 326 319 320 321 323 323 326 330 328 325 322 314 307 304 303 300 320 317 308 310 317 321 314 312 310
154 166 166 169 169 168 171 168 163 156 146 140 135 134 142 147 149 150 152 148 148 142 138 141 146 145 153 155 152 151 145 137 129 124 131 160 149 159 163 199 229 175 158 154 125 81 74 96 81 360 354 342 346 341 331 340 342 343 342 338 336 335 329 328 330 333 332 327 320 318 315 319 319 321 329 336 331 326 328 327 324 315 318 321 325
158 155 170 171 177 172 169 169 155 152 151 147 145 145 147 144 144 150 153 151 147 144 146 154 156 154 153 151 146 149 142 140 145 143 128 97 170 161 178 145 163 184 188 167 138 140 122 113 70 318 329 354 317 308 331 342 344 344 343 343 339 337 336 336 337 341 343 330 326 323 326 325 327 338 339 336 337 338 333 330 329 334 331 330 330
162 156 183 179 174 162 162 158 156 154 157 153 148 149 145 149 152 159 161 159 155 153 157 155 158 166 166 160 154 144 143 144 149 144 142 132 106 89 102 97 84 85 93 119 102 72 56 40 63 11 316 342 333 334 340 342 345 348 349 347 345 345 348 347 348 347 351 342 334 334 337 340 345 341 340 341 336 332 330 329 328 327 329 330 331